East Milton, MA

1:22 AM EDT on October 22, 2017 (GMT -0400)
East Milton

Weather History for KMQE - July, 2013

Change the Weather History Date:

Tuesday, July 9, 2013

  Actual Average (KOWD) Record (KOWD)
Temperature  
Mean Temperature 68 °F -  
Max Temperature 72 °F 80 °F 90 °F (2002)
Min Temperature 64 °F 57 °F 53 °F (1999)
Cooling Degree Days 2    
Growing Degree Days 18 (Base 50)    
Moisture  
Dew Point 64 °F    
Average Humidity 89    
Maximum Humidity 96    
Minimum Humidity 78    
Precipitation  
Precipitation 0.00 in - - ()
Sea Level Pressure  
Sea Level Pressure 30.11 in    
Wind  
Wind Speed 6 mph (ENE)    
Max Wind Speed 9 mph    
Max Gust Speed -    
Averages and records for this station are not official NWS values.
T = Trace of Precipitation, MM = Missing Value Source: NWS Daily Summary

Daily Weather History Graph

Daily Weather History Graph

Search for Another Location

Airport or City:

Trip Planner

Search our weather history database for the weather conditions in past years. The results will help you decide how hot, cold, wet, or windy it might be!

Date:

Astronomy

Jul. 09, 2013 Rise Set
Actual Time 5:17 AM EDT 8:22 PM EDT
Civil Twilight 4:43 AM EDT 8:55 PM EDT
Nautical Twilight 3:59 AM EDT 9:39 PM EDT
Astronomical Twilight 3:07 AM EDT 10:30 PM EDT
Moon 6:40 AM EDT (7/9) 8:54 PM EDT (7/9)
Length of Visible Light 16h 12m
Length of Day
15h 05m
New Moon, 2% of the Moon is Illuminated
Jul 9
New Moon
Jul 15
First Quarter
Jul 22
Full
Jul 29
Last Quarter
Aug 6
New

Hourly Weather History & Observations

Time (EDT) Temp. Dew Point Humidity Pressure Visibility Wind Dir Wind Speed Gust Speed Precip Events Conditions
12:54 AM 64.9 °F 63.0 °F 93% 30.08 in - NE 6.9 mph - N/A   Unknown
1:54 AM 64.9 °F 63.0 °F 93% 30.08 in - ENE 5.8 mph - N/A   Unknown
2:54 AM 64.0 °F 63.0 °F 96% 30.07 in - ENE 4.6 mph - N/A   Unknown
3:54 AM 64.0 °F 63.0 °F 96% 30.08 in - NNE 4.6 mph - N/A   Unknown
4:54 AM 64.0 °F 62.1 °F 93% 30.09 in - ENE 5.8 mph - N/A   Unknown
5:54 AM 64.0 °F 63.0 °F 96% 30.10 in - NE 4.6 mph - N/A   Unknown
6:54 AM 64.9 °F 63.0 °F 93% 30.12 in - NNE 3.5 mph - N/A   Unknown
7:54 AM 64.9 °F 63.0 °F 93% 30.12 in - Calm Calm - N/A   Unknown
8:54 AM 66.9 °F 64.9 °F 93% 30.13 in - North 4.6 mph - N/A   Unknown
9:54 AM 66.0 °F 64.9 °F 96% 30.13 in - NE 3.5 mph - N/A   Unknown
10:54 AM 68.0 °F 66.0 °F 93% 30.13 in - Calm Calm - N/A   Unknown
11:54 AM 69.1 °F 64.9 °F 87% 30.14 in - NE 5.8 mph - N/A   Unknown
12:54 PM 69.1 °F 64.9 °F 87% 30.14 in - NE 5.8 mph - N/A   Unknown
1:54 PM 71.1 °F 64.9 °F 81% 30.13 in - Variable 4.6 mph - N/A   Unknown
2:54 PM 71.1 °F 64.9 °F 81% 30.12 in - ENE 4.6 mph - N/A   Unknown
3:54 PM 71.1 °F 64.9 °F 81% 30.12 in - ESE 4.6 mph - N/A   Unknown
4:54 PM 71.1 °F 64.9 °F 81% 30.11 in - NE 8.1 mph - N/A   Unknown
5:54 PM 71.1 °F 64.0 °F 78% 30.09 in - ENE 9.2 mph - N/A   Unknown
6:54 PM 68.0 °F 63.0 °F 84% 30.09 in - ENE 9.2 mph - N/A   Unknown
7:54 PM 66.0 °F 62.1 °F 87% 30.09 in - ENE 9.2 mph - N/A   Unknown
8:54 PM 64.9 °F 62.1 °F 90% 30.11 in - East 9.2 mph - N/A   Unknown
9:54 PM 66.0 °F 63.0 °F 90% 30.11 in - East 8.1 mph - N/A   Unknown
10:54 PM 66.9 °F 63.0 °F 87% 30.11 in - East 3.5 mph - N/A   Unknown
11:54 PM 66.0 °F 63.0 °F 90% 30.11 in - East 8.1 mph - N/A   Unknown